Wind_Speed
16 14 14 18 14 16 25 22 22 24 23 23 24 21 23 24 24 24 24 24 25 25 23 24 23 19 19 18 20 30 32 34 39 36 36 26 22 17 12 8 3 1 4 3
14 11 7 10 14 12 18 18 17 18 20 21 22 22 23 27 28 26 23 22 21 20 20 20 20 20 17 16 17 18 18 18 18 22 28 29 24 23 19 12 10 7 8 2
13 10 7 6 4 11 12 14 13 15 16 17 18 18 18 22 25 24 25 25 20 14 13 12 10 13 13 12 16 16 18 20 23 18 21 22 21 24 27 23 18 8 4 10
17 14 10 6 2 2 7 7 12 12 13 13 15 16 15 17 18 19 20 20 20 16 10 7 10 7 8 9 10 11 11 16 21 17 22 16 10 12 16 15 19 18 13 18
26 18 12 9 7 6 2 1 5 11 8 10 10 11 13 14 16 16 16 16 15 11 9 11 12 9 5 8 11 12 12 16 15 12 12 13 9 3 10 15 16 20 19 20
20 18 17 14 15 12 8 6 5 7 5 5 7 8 10 10 10 12 13 15 16 14 11 12 14 14 11 13 13 12 12 17 16 20 20 30 23 10 14 31 32 22 26 26
28 27 25 24 22 18 13 9 10 6 2 1 5 6 7 10 13 12 12 12 13 15 14 11 10 11 11 13 18 17 12 20 21 26 29 28 26 28 38 43 26 30 24 24
35 35 31 31 28 22 18 15 14 11 10 8 10 12 12 13 16 19 16 16 18 20 19 18 18 20 18 20 20 25 26 24 23 17 22 26 25 31 32 33 34 33 32 33
39 39 35 35 32 27 22 21 17 16 12 14 14 17 17 15 17 17 17 19 19 21 22 22 24 27 32 30 28 24 23 29 28 28 30 29 25 28 29 31 33 32 33 33
47 48 43 41 35 30 27 27 23 22 18 15 18 17 19 20 20 21 21 20 21 22 26 24 24 26 28 31 30 31 32 31 33 33 35 37 35 37 38 41 43 45 46 46
54 54 49 46 37 36 35 32 27 26 24 20 21 21 22 24 24 25 25 24 25 26 28 28 29 30 27 29 33 33 36 36 34 36 38 40 39 41 45 47 46 49 52 55
60 59 56 50 47 44 40 37 33 31 31 26 24 27 27 29 28 28 30 31 32 34 35 35 39 41 37 35 38 39 40 41 40 41 43 45 47 47 49 52 52 55 58 62
67 62 61 56 50 47 43 42 41 39 38 32 30 32 31 31 32 33 34 33 35 38 40 40 45 46 44 42 45 48 48 48 47 47 50 52 54 56 56 59 59 63 65 69
76 69 65 57 54 56 52 50 49 46 41 39 36 36 35 34 36 38 37 39 40 41 41 42 44 48 49 49 49 51 56 56 57 57 60 61 62 64 67 68 66 69 75 81
80 73 69 63 63 61 58 56 53 49 47 44 44 40 39 39 41 43 44 44 46 46 46 44 45 48 50 51 52 52 57 59 61 62 63 65 68 69 71 67 70 79 86 88
85 78 75 72 71 68 64 60 55 52 50 48 48 46 47 47 46 47 48 49 49 52 52 52 52 52 51 52 53 56 58 60 62 63 65 68 70 71 70 76 84 90 88 89
85 80 79 75 76 74 68 60 60 60 57 54 52 53 55 53 53 52 53 52 53 55 57 56 56 56 56 57 59 61 62 64 65 66 68 70 70 71 80 87 88 87 90 91
89 84 83 80 83 81 63 65 66 65 61 60 59 60 60 59 59 58 58 58 59 59 58 58 58 59 62 63 64 65 67 69 70 71 71 68 76 85 85 87 86 89 88 90
92 90 87 85 84 77 74 70 70 69 66 65 64 65 65 64 64 65 66 65 65 64 63 61 62 65 66 66 68 70 73 74 72 71 75 82 86 87 85 85 88 85 89 94
95 93 90 87 88 83 71 73 76 76 70 69 68 69 69 68 67 68 70 72 72 69 67 67 69 68 69 71 74 75 74 72 75 83 87 88 85 84 87 86 84 90 89 80
98 97 93 89 88 85 75 79 80 78 68 70 71 71 72 73 73 75 76 75 73 73 72 72 72 74 75 74 73 74 75 81 86 88 85 82 84 87 81 82 87 80 82 82
100 96 95 93 92 87 79 80 77 72 77 76 77 77 77 76 75 76 76 78 76 75 76 77 77 77 75 75 78 81 83 86 86 80 82 84 83 79 84 82 78 80 82 84
105 99 95 93 91 89 85 84 81 81 80 79 79 79 77 75 76 76 77 77 78 79 80 78 78 79 80 82 82 84 82 83 81 82 79 75 76 78 76 78 76 82 87 90
92 97 98 95 93 89 88 86 85 85 85 84 83 84 84 83 83 83 83 84 84 84 82 82 84 84 84 84 80 80 79 78 81 77 70 69 70 77 79 72 84 92 97 94
77 78 81 83 85 90 93 89 89 87 86 85 85 88 86 86 87 87 87 86 85 87 87 86 86 86 82 80 78 75 77 75 69 62 63 71 75 83 77 79 89 98 99 96
71 68 63 61 71 81 86 90 95 92 89 87 90 89 89 89 89 89 89 89 89 88 85 84 82 78 76 76 72 71 65 63 60 64 69 73 82 84 85 85 96 102 102 101
Wind_Direction
135 121 112 102 82 74 82 69 62 63 62 58 63 66 74 68 64 61 58 62 65 62 58 62 68 77 81 82 85 82 72 63 59 54 45 40 34 27 12 338 310 42 327 280
149 137 133 104 102 80 80 76 66 58 59 60 62 62 65 72 67 62 58 55 53 50 51 51 61 79 81 66 60 49 55 48 38 40 32 29 35 25 22 360 328 287 275 300
172 167 165 124 76 94 79 87 71 58 51 48 53 60 58 65 70 64 57 52 50 60 47 45 54 59 44 44 33 46 48 30 28 30 17 6 2 4 18 31 22 333 193 347
198 190 195 193 166 64 110 99 91 61 50 41 35 37 42 52 61 66 63 54 49 47 59 38 34 43 16 10 14 67 27 11 10 13 22 24 35 49 16 13 2 352 292 301
205 196 202 215 233 230 238 164 102 85 43 29 30 22 21 28 36 38 44 42 46 58 45 37 41 37 324 349 29 5 353 342 353 2 350 341 340 332 21 4 337 321 314 303
219 215 214 220 226 232 229 244 276 120 104 20 5 24 19 10 25 29 27 17 6 12 27 31 24 6 343 338 339 319 325 315 332 354 342 342 344 305 308 324 322 296 298 299
225 229 220 219 222 221 225 237 261 277 237 237 304 339 5 356 354 22 20 11 360 348 343 351 360 13 352 346 341 347 327 322 317 334 341 332 326 316 326 334 329 312 299 294
226 227 225 224 225 222 218 214 238 253 268 283 300 313 333 342 344 349 357 356 349 348 352 345 335 335 338 337 340 343 340 347 345 342 342 336 325 323 328 322 330 324 309 292
226 234 232 231 230 225 222 228 226 239 243 269 281 298 310 317 318 327 332 334 336 334 340 341 334 334 325 320 320 328 325 324 327 325 323 324 319 319 320 319 323 325 324 315
227 232 232 233 232 232 230 227 228 235 241 247 267 275 285 293 299 307 312 313 316 318 319 328 327 325 319 312 310 314 313 313 315 319 320 324 315 309 312 315 319 321 323 320
231 234 235 237 238 237 236 234 231 237 242 240 256 265 272 275 280 290 296 297 298 300 300 312 310 308 312 319 320 318 311 307 307 309 309 314 314 316 313 311 312 313 315 317
233 234 236 237 237 237 240 242 240 238 242 243 246 257 266 273 278 280 285 290 293 296 299 302 300 306 313 317 316 320 318 310 305 304 303 307 311 312 315 315 310 306 310 312
236 238 241 242 243 246 245 248 245 243 246 247 247 254 263 273 277 279 282 283 285 289 291 293 298 303 307 310 311 313 315 315 311 306 305 307 308 309 312 312 309 308 308 309
237 236 239 240 239 241 240 241 246 247 250 251 254 256 262 266 271 275 276 277 277 278 281 286 291 294 297 301 303 308 312 315 315 313 311 311 312 314 314 313 310 309 309 309
235 235 238 238 241 246 250 251 252 256 257 260 261 265 266 265 267 271 273 275 278 280 281 282 283 285 289 294 299 302 307 311 312 310 308 310 312 311 311 310 308 308 310 314
234 235 238 241 243 242 243 247 252 255 258 261 263 267 268 267 267 269 271 275 279 284 287 287 287 288 290 291 295 299 302 306 303 304 306 307 308 308 307 306 308 313 314 314
233 235 240 242 244 245 246 251 253 255 257 259 262 264 266 268 270 272 275 278 280 281 283 287 289 290 291 295 297 299 302 301 302 303 304 305 305 305 307 310 312 311 312 312
235 234 237 239 243 246 245 246 251 255 257 260 262 266 269 273 274 276 278 279 280 282 284 286 289 292 295 297 299 300 300 301 302 304 304 306 307 309 309 310 311 311 308 308
235 236 237 239 243 245 246 249 252 253 255 258 261 264 267 271 275 279 280 280 281 282 285 288 290 292 295 297 297 298 299 301 303 303 305 307 308 310 311 310 309 308 306 306
232 236 238 239 243 246 246 247 250 253 254 259 263 265 268 271 274 276 277 280 282 284 286 289 291 293 293 294 296 298 298 299 301 305 306 309 310 310 308 309 307 307 311 310
231 233 237 239 242 245 244 248 251 256 261 259 261 263 266 267 268 272 276 279 282 283 286 288 290 290 292 294 295 296 298 300 303 306 306 307 306 309 309 306 312 311 311 314
233 233 236 238 242 244 245 246 251 253 253 255 257 258 261 266 269 272 275 278 280 282 284 286 287 289 292 294 295 297 299 302 302 303 304 307 310 308 309 313 312 314 319 320
233 235 236 238 240 242 242 246 247 249 252 255 257 260 262 264 266 269 271 273 277 279 281 284 287 289 292 294 295 297 299 300 301 305 307 308 310 312 313 311 317 319 321 321
233 235 236 237 240 243 243 246 249 251 253 256 259 261 262 264 267 269 272 274 276 279 283 285 287 290 291 292 294 296 297 299 303 306 307 312 315 318 316 309 319 326 327 323
232 234 236 239 240 243 244 246 247 250 253 255 258 261 264 266 268 271 273 276 277 279 282 285 286 289 291 293 295 296 299 302 305 308 312 316 318 320 319 318 321 325 326 325
234 236 237 239 241 242 244 247 248 250 252 253 255 258 262 266 268 270 273 275 278 281 283 285 286 289 291 294 297 299 300 301 308 313 315 316 320 322 321 320 322 327 328 326
Height
10988 10989 10991 10990 10991 10990 10985 10986 10987 10987 10988 10988 10986 10985 10983 10980 10978 10977 10976 10976 10976 10975 10975 10975 10975 10974 10973 10972 10971 10970 10967 10966 10965 10963 10962 10961 10961 10962 10961 10960 10961 10960 10963 10964
10988 10989 10991 10991 10992 10992 10988 10988 10989 10990 10989 10990 10990 10990 10988 10984 10983 10982 10981 10981 10980 10979 10979 10980 10981 10981 10980 10977 10974 10972 10970 10969 10966 10963 10962 10959 10957 10956 10957 10958 10959 10959 10958 10959
10986 10988 10991 10990 10992 10993 10992 10992 10992 10991 10991 10990 10990 10991 10992 10990 10987 10986 10986 10986 10986 10986 10985 10985 10986 10985 10983 10981 10979 10977 10975 10972 10973 10974 10971 10967 10964 10961 10959 10959 10958 10957 10958 10957
10984 10987 10989 10991 10992 10993 10995 10994 10993 10994 10992 10992 10991 10991 10992 10991 10991 10990 10990 10990 10990 10990 10990 10989 10989 10989 10986 10983 10982 10982 10981 10978 10975 10973 10970 10970 10968 10964 10962 10960 10957 10957 10956 10952
10979 10985 10988 10990 10992 10993 10993 10995 10994 10992 10994 10994 10994 10993 10993 10992 10990 10990 10990 10991 10991 10992 10991 10992 10991 10989 10987 10986 10986 10983 10980 10977 10974 10974 10971 10970 10968 10965 10962 10961 10958 10956 10952 10951
10982 10984 10985 10988 10989 10990 10991 10991 10993 10992 10994 10996 10996 10996 10995 10993 10993 10992 10990 10990 10990 10991 10992 10992 10990 10988 10989 10988 10986 10982 10980 10976 10974 10972 10970 10967 10964 10963 10960 10959 10954 10951 10948 10947
10975 10977 10981 10984 10986 10989 10991 10989 10990 10989 10991 10995 10996 10997 10996 10994 10992 10992 10990 10991 10991 10991 10991 10992 10990 10990 10989 10988 10984 10980 10978 10977 10974 10970 10966 10966 10962 10957 10955 10952 10950 10950 10944 10941
10968 10970 10975 10979 10981 10987 10990 10991 10991 10990 10988 10991 10991 10992 10992 10990 10989 10987 10987 10988 10988 10988 10988 10988 10986 10985 10987 10985 10983 10976 10971 10972 10970 10967 10965 10961 10958 10954 10951 10948 10944 10942 10939 10934
10959 10962 10969 10973 10977 10983 10987 10990 10991 10992 10990 10988 10989 10987 10988 10988 10987 10987 10987 10986 10986 10986 10986 10985 10983 10982 10981 10981 10979 10976 10972 10968 10966 10963 10961 10957 10954 10951 10947 10943 10938 10934 10930 10927
10951 10951 10959 10964 10974 10979 10982 10985 10988 10990 10991 10990 10988 10989 10988 10986 10986 10985 10984 10984 10984 10984 10982 10981 10980 10980 10979 10977 10975 10972 10970 10967 10963 10959 10955 10951 10948 10945 10941 10936 10929 10924 10920 10914
10941 10944 10951 10958 10969 10971 10975 10979 10983 10985 10989 10989 10987 10987 10987 10986 10986 10984 10982 10982 10981 10981 10980 10977 10975 10976 10976 10973 10969 10967 10964 10962 10959 10955 10951 10947 10943 10937 10933 10929 10922 10915 10909 10902
10929 10932 10939 10950 10957 10962 10967 10973 10978 10981 10983 10986 10987 10984 10984 10982 10981 10981 10980 10979 10978 10976 10974 10973 10970 10968 10966 10964 10961 10959 10957 10955 10951 10947 10944 10940 10934 10929 10925 10919 10911 10906 10898 10891
10913 10926 10929 10939 10949 10956 10962 10963 10968 10972 10975 10981 10982 10981 10981 10979 10977 10976 10975 10975 10974 10972 10972 10971 10965 10961 10959 10958 10954 10950 10948 10944 10940 10936 10932 10927 10923 10916 10911 10906 10900 10893 10885 10878
10893 10910 10920 10934 10937 10937 10946 10951 10954 10961 10967 10971 10975 10976 10977 10976 10974 10971 10971 10970 10969 10968 10967 10966 10962 10956 10953 10951 10948 10943 10937 10933 10927 10922 10916 10911 10906 10900 10893 10888 10881 10873 10866 10859
10882 10899 10907 10919 10921 10927 10934 10941 10947 10953 10958 10963 10963 10968 10969 10969 10967 10964 10964 10962 10959 10958 10958 10958 10956 10952 10948 10945 10940 10936 10930 10924 10917 10911 10905 10898 10892 10886 10880 10872 10865 10857 10847 10833
10871 10887 10895 10902 10907 10914 10921 10928 10937 10944 10948 10952 10953 10956 10956 10956 10956 10955 10953 10951 10950 10947 10946 10943 10942 10940 10938 10935 10931 10926 10922 10916 10910 10903 10896 10888 10880 10873 10866 10858 10848 10836 10825 10816
10863 10878 10882 10892 10890 10897 10912 10927 10927 10930 10936 10940 10943 10941 10941 10942 10942 10942 10941 10941 10939 10937 10933 10931 10929 10927 10925 10922 10919 10914 10909 10902 10896 10890 10883 10876 10868 10860 10851 10840 10831 10822 10810 10797
10846 10861 10865 10873 10871 10879 10914 10910 10913 10918 10925 10928 10929 10928 10928 10928 10928 10927 10926 10925 10923 10923 10922 10920 10918 10915 10911 10908 10903 10898 10891 10886 10879 10873 10867 10859 10852 10845 10835 10825 10814 10804 10793 10783
10828 10838 10851 10857 10861 10879 10888 10898 10901 10904 10911 10914 10917 10915 10914 10914 10914 10911 10909 10907 10908 10908 10908 10907 10905 10901 10897 10892 10886 10881 10875 10869 10864 10857 10852 10845 10836 10827 10816 10806 10796 10785 10774 10762
10812 10820 10833 10845 10847 10863 10888 10881 10881 10886 10899 10901 10902 10901 10901 10901 10901 10894 10890 10890 10891 10893 10893 10892 10890 10887 10882 10877 10872 10867 10861 10855 10850 10843 10835 10826 10816 10807 10799 10789 10778 10766 10754 10741
10797 10805 10819 10829 10837 10850 10870 10864 10866 10874 10895 10887 10887 10886 10885 10884 10882 10879 10878 10878 10879 10877 10878 10876 10874 10871 10867 10863 10858 10852 10847 10841 10832 10825 10817 10810 10802 10793 10782 10772 10761 10749 10736 10722
10780 10793 10805 10815 10823 10838 10849 10848 10861 10869 10859 10863 10865 10867 10868 10870 10870 10868 10868 10863 10864 10864 10863 10861 10859 10856 10853 10849 10843 10838 10832 10824 10817 10811 10804 10796 10785 10776 10763 10752 10741 10727 10714 10701
10761 10777 10794 10803 10813 10820 10829 10832 10840 10844 10845 10848 10850 10851 10853 10854 10854 10852 10852 10851 10850 10849 10848 10847 10844 10841 10837 10832 10827 10821 10814 10806 10799 10794 10786 10777 10768 10756 10746 10737 10726 10712 10697 10682
10746 10759 10772 10785 10800 10811 10815 10817 10823 10826 10830 10833 10833 10835 10837 10838 10837 10836 10836 10836 10835 10835 10834 10830 10828 10825 10820 10815 10809 10803 10796 10789 10783 10776 10769 10761 10752 10741 10729 10718 10706 10692 10676 10660
10734 10746 10763 10777 10788 10793 10798 10801 10805 10807 10811 10816 10816 10814 10818 10820 10821 10821 10820 10821 10819 10817 10815 10815 10813 10808 10802 10797 10792 10786 10780 10772 10766 10760 10753 10744 10734 10725 10712 10700 10686 10673 10657 10637
10729 10744 10757 10766 10767 10772 10777 10782 10787 10791 10794 10797 10795 10801 10802 10803 10803 10803 10802 10803 10803 10801 10797 10796 10793 10788 10784 10780 10775 10769 10762 10756 10751 10746 10738 10728 10718 10705 10694 10681 10668 10651 10634 10617